World > North America > United States > North Dakota

Clifton, North Dakota Regional Weather

Lat: 47.72N, Lon: 100.12W
Wx Zone: NDZ022Web Search

If you are on your PC, you can easily pass this page to your phone by scanning the QR Code near the bottom with your camera.

Feedback


°F Click to change Clifton hourly weather to Imperial units.Click to change Clifton hourly weather to Metric units. °C
Clifton Weather Map
UTC Time: 4/16/2021, 17:11
Your Time:

Clifton, ND Regional Weather

Expires:202104161800;;647510
ASUS43 KBIS 161710
RWRND 

NORTH DAKOTA REGIONAL WEATHER ROUNDUP
NATIONAL WEATHER SERVICE BISMARCK ND
1200 PM CDT FRI APR 16 2021

NOTE: "FAIR" INDICATES FEW OR NO CLOUDS BELOW 12,000 FEET WITH NO
SIGNIFICANT WEATHER AND/OR OBSTRUCTIONS TO VISIBILITY.



NDZ022-023-025-028>030-036>039-047>053-161800-
SOUTHEAST NORTH DAKOTA
  
CITY           SKY/WX    TMP DP  RH WIND       PRES   REMARKS
FARGO          CLOUDY    45  33  63 N10       30.17F                  
JAMESTOWN      CLOUDY    43  28  55 N14       30.19S                  
$$ 

  

SKY/WX - Weather  TMP - Temperature  DP - Dew Point  RH - Relative Humidity
WIND - Wind Direction/Speed PRES - Barometric Pressure VSB - Visibility
WCI - Wind Chill Index E13G22 Wind - East Wind 13 mph/Gusts of 22 mph